| time (UTC) | temp F | wind direction | speed MPH | gust MPH | rain 1hr in | rain 24hr in | rain mn in | humidity % | barometer mb |
| 20260831134601 | 70 | 268 | 3.0 | 10.0 | 0.00 | 0.20 | 0.18 | 100 | 1014.5 |
| 20260831134031 | 69 | 16 | 1.0 | 9.0 | 0.00 | 0.20 | 0.18 | 100 | 1014.4 |
| 20260831133533 | 68 | 336 | 2.0 | 8.0 | 0.00 | 0.20 | 0.18 | 100 | 1014.4 |
| 20260831133102 | 68 | 250 | 3.0 | 10.0 | 0.00 | 0.20 | 0.18 | 100 | 1014.4 |
| 20260831132533 | 68 | 207 | 3.0 | 10.0 | 0.00 | 0.20 | 0.18 | 100 | 1014.3 |
| 20260831132034 | 69 | 198 | 2.0 | 10.0 | 0.00 | 0.20 | 0.18 | 100 | 1014.3 |
| 20260831131554 | 70 | 241 | 2.0 | 12.0 | 0.00 | 0.20 | 0.18 | 100 | 1014.1 |
| 20260831131035 | 70 | 249 | 3.0 | 12.0 | 0.00 | 0.20 | 0.18 | 100 | 1013.9 |
| 20260831130531 | 70 | 211 | 3.0 | 11.0 | 0.00 | 0.20 | 0.18 | 100 | 1013.9 |
| 20260831130058 | 69 | 244 | 4.0 | 11.0 | 0.00 | 0.20 | 0.18 | 100 | 1013.9 |
| 20260831125531 | 69 | 171 | 4.0 | 11.0 | 0.00 | 0.20 | 0.18 | 100 | 1013.8 |
| 20260831125032 | 69 | 246 | 3.0 | 12.0 | 0.00 | 0.20 | 0.18 | 100 | 1013.8 |
| 20260831124551 | 69 | 221 | 4.0 | 12.0 | 0.00 | 0.20 | 0.18 | 100 | 1013.9 |
| 20260831124031 | 69 | 210 | 3.0 | 10.0 | 0.00 | 0.20 | 0.18 | 100 | 1013.6 |
| 20260831123531 | 68 | 310 | 1.0 | 7.0 | 0.00 | 0.20 | 0.18 | 100 | 1013.5 |
| 20260831123048 | 67 | 0 | 0.0 | 4.0 | 0.00 | 0.20 | 0.18 | 100 | 1013.6 |
| 20260831122533 | 66 | 0 | 0.0 | 8.0 | 0.00 | 0.20 | 0.18 | 100 | 1013.6 |
| 20260831122033 | 66 | 238 | 0.0 | 9.0 | 0.00 | 0.20 | 0.18 | 100 | 1013.5 |
| 20260831121546 | 66 | 0 | 2.0 | 9.0 | 0.00 | 0.20 | 0.18 | 100 | 1013.4 |
| 20260831121032 | 66 | 253 | 0.0 | 5.0 | 0.00 | 0.20 | 0.18 | 100 | 1013.3 |
| 20260831120532 | 66 | 292 | 0.0 | 5.0 | 0.00 | 0.20 | 0.18 | 100 | 1013.2 |
| 20260831120051 | 65 | 0 | 0.0 | 5.0 | 0.00 | 0.20 | 0.18 | 100 | 1013.2 |
| 20260831115532 | 65 | 0 | 0.0 | 4.0 | 0.00 | 0.20 | 0.18 | 100 | 1013.0 |
| 20260831115031 | 65 | 0 | 0.0 | 3.0 | 0.00 | 0.20 | 0.18 | 100 | 1013.1 |
| 20260831114553 | 65 | 0 | 0.0 | 8.0 | 0.00 | 0.20 | 0.18 | 100 | 1013.0 |
| 20260831114031 | 65 | 0 | 0.0 | 8.0 | 0.00 | 0.20 | 0.18 | 100 | 1012.9 |
| 20260831113533 | 65 | 209 | 2.0 | 8.0 | 0.00 | 0.20 | 0.18 | 100 | 1012.8 |
| 20260831113048 | 65 | 0 | 0.0 | 8.0 | 0.00 | 0.20 | 0.18 | 100 | 1012.9 |
| 20260831112532 | 65 | 194 | 0.0 | 7.0 | 0.00 | 0.19 | 0.18 | 100 | 1012.8 |
| 20260831112032 | 65 | 0 | 0.0 | 8.0 | 0.00 | 0.19 | 0.18 | 100 | 1012.6 |
| 20260831111545 | 65 | 0 | 0.0 | 8.0 | 0.00 | 0.19 | 0.18 | 100 | 1012.5 |
| 20260831111031 | 65 | 0 | 1.0 | 7.0 | 0.00 | 0.19 | 0.18 | 100 | 1012.6 |
| 20260831110532 | 66 | 0 | 0.0 | 10.0 | 0.00 | 0.19 | 0.18 | 100 | 1012.4 |
| 20260831110057 | 65 | 0 | 1.0 | 10.0 | 0.00 | 0.19 | 0.18 | 100 | 1012.4 |
| 20260831105535 | 65 | 0 | 0.0 | 10.0 | 0.00 | 0.19 | 0.18 | 100 | 1012.2 |
| 20260831105031 | 64 | 0 | 2.0 | 10.0 | 0.00 | 0.19 | 0.18 | 100 | 1012.3 |
| 20260831104557 | 64 | 221 | 2.0 | 10.0 | 0.00 | 0.19 | 0.18 | 100 | 1012.3 |
| 20260831104030 | 64 | 252 | 1.0 | 9.0 | 0.00 | 0.19 | 0.18 | 100 | 1012.2 |
| 20260831103531 | 64 | 203 | 2.0 | 9.0 | 0.00 | 0.19 | 0.18 | 100 | 1012.2 |
| 20260831103048 | 64 | 0 | 1.0 | 9.0 | 0.00 | 0.19 | 0.18 | 100 | 1012.1 |
| 20260831102533 | 64 | 0 | 3.0 | 11.0 | 0.00 | 0.19 | 0.18 | 100 | 1012.1 |
| 20260831102032 | 64 | 347 | 3.0 | 11.0 | 0.00 | 0.19 | 0.18 | 100 | 1012.1 |
| 20260831101548 | 63 | 256 | 2.0 | 9.0 | 0.00 | 0.19 | 0.18 | 100 | 1012.0 |
| 20260831101032 | 63 | 233 | 4.0 | 9.0 | 0.00 | 0.19 | 0.18 | 100 | 1011.9 |
| 20260831100532 | 63 | 186 | 3.0 | 10.0 | 0.00 | 0.19 | 0.18 | 100 | 1011.8 |
| 20260831100053 | 62 | 221 | 3.0 | 11.0 | 0.00 | 0.19 | 0.18 | 100 | 1011.8 |
| 20260831095534 | 62 | 255 | 3.0 | 11.0 | 0.00 | 0.19 | 0.18 | 100 | 1011.7 |
| 20260831095031 | 62 | 262 | 4.0 | 10.0 | 0.00 | 0.19 | 0.18 | 100 | 1011.7 |
| 20260831094559 | 62 | 150 | 2.0 | 10.0 | 0.00 | 0.19 | 0.18 | 100 | 1011.7 |
| 20260831094035 | 62 | 0 | 2.0 | 9.0 | 0.00 | 0.19 | 0.18 | 100 | 1011.6 |
| 20260831093532 | 62 | 269 | 3.0 | 13.0 | 0.00 | 0.19 | 0.18 | 100 | 1011.5 |
| 20260831093133 | 62 | 250 | 3.0 | 13.0 | 0.00 | 0.19 | 0.18 | 100 | 1011.5 |
| 20260831092534 | 61 | 250 | 2.0 | 12.0 | 0.00 | 0.19 | 0.18 | 100 | 1011.3 |
| 20260831092034 | 61 | 273 | 3.0 | 12.0 | 0.00 | 0.19 | 0.18 | 100 | 1011.4 |
| 20260831091556 | 61 | 224 | 3.0 | 10.0 | 0.00 | 0.19 | 0.18 | 100 | 1011.2 |
| 20260831091032 | 61 | 198 | 2.0 | 9.0 | 0.00 | 0.19 | 0.18 | 100 | 1011.2 |
| 20260831090531 | 61 | 0 | 1.0 | 10.0 | 0.00 | 0.19 | 0.18 | 100 | 1011.2 |
| 20260831090048 | 61 | 188 | 1.0 | 14.0 | 0.00 | 0.19 | 0.18 | 100 | 1011.0 |
| 20260831085532 | 61 | 243 | 4.0 | 14.0 | 0.00 | 0.19 | 0.18 | 100 | 1011.0 |
| 20260831085035 | 61 | 257 | 3.0 | 10.0 | 0.00 | 0.19 | 0.18 | 100 | 1010.9 |
| 20260831084628 | 61 | 269 | 3.0 | 10.0 | 0.00 | 0.19 | 0.18 | 100 | 1010.8 |
| 20260831084032 | 61 | 282 | 2.0 | 9.0 | 0.00 | 0.19 | 0.18 | 100 | 1010.8 |
| 20260831083532 | 61 | 232 | 2.0 | 9.0 | 0.00 | 0.19 | 0.18 | 100 | 1010.7 |
| 20260831083056 | 60 | 209 | 3.0 | 11.0 | 0.00 | 0.19 | 0.18 | 100 | 1010.6 |
| 20260831082534 | 60 | 271 | 3.0 | 11.0 | 0.00 | 0.19 | 0.18 | 100 | 1010.4 |
| 20260831082034 | 60 | 223 | 3.0 | 11.0 | 0.00 | 0.19 | 0.18 | 100 | 1010.2 |
| 20260831081547 | 60 | 153 | 4.0 | 11.0 | 0.00 | 0.19 | 0.18 | 100 | 1010.1 |
| 20260831081034 | 59 | 157 | 3.0 | 11.0 | 0.00 | 0.19 | 0.18 | 100 | 1010.1 |
| 20260831080532 | 59 | 240 | 2.0 | 12.0 | 0.00 | 0.19 | 0.18 | 100 | 1010.0 |
| 20260831080109 | 59 | 260 | 4.0 | 12.0 | 0.00 | 0.19 | 0.18 | 100 | 1009.9 |
| 20260831075532 | 59 | 221 | 3.0 | 12.0 | 0.00 | 0.19 | 0.18 | 100 | 1009.8 |
| 20260831075033 | 59 | 182 | 4.0 | 12.0 | 0.00 | 0.19 | 0.18 | 100 | 1009.8 |
| 20260831074553 | 58 | 175 | 4.0 | 12.0 | 0.00 | 0.19 | 0.18 | 100 | 1009.7 |
| 20260831074033 | 58 | 232 | 3.0 | 10.0 | 0.00 | 0.19 | 0.18 | 100 | 1009.6 |
| 20260831073533 | 58 | 259 | 3.0 | 9.0 | 0.00 | 0.19 | 0.18 | 100 | 1009.7 |
| 20260831073048 | 58 | 229 | 3.0 | 11.0 | 0.00 | 0.19 | 0.18 | 100 | 1009.6 |
| 20260831072533 | 57 | 166 | 1.0 | 11.0 | 0.00 | 0.19 | 0.18 | 100 | 1009.6 |
| 20260831072034 | 57 | 211 | 3.0 | 10.0 | 0.00 | 0.19 | 0.18 | 100 | 1009.5 |
| 20260831071548 | 57 | 230 | 3.0 | 11.0 | 0.00 | 0.19 | 0.18 | 100 | 1009.5 |
| 20260831071033 | 57 | 187 | 3.0 | 11.0 | 0.00 | 0.19 | 0.18 | 100 | 1009.4 |
| 20260831070534 | 57 | 243 | 3.0 | 10.0 | 0.00 | 0.19 | 0.18 | 100 | 1009.3 |
| 20260831070057 | 57 | 269 | 4.0 | 10.0 | 0.00 | 0.19 | 0.18 | 100 | 1009.4 |
| 20260831065535 | 56 | 298 | 3.0 | 9.0 | 0.00 | 0.19 | 0.18 | 100 | 1009.2 |
| 20260831065037 | 56 | 244 | 3.0 | 10.0 | 0.00 | 0.19 | 0.18 | 100 | 1009.1 |
| 20260831064557 | 56 | 195 | 3.0 | 10.0 | 0.00 | 0.19 | 0.18 | 100 | 1009.0 |
| 20260831064030 | 56 | 265 | 2.0 | 10.0 | 0.00 | 0.19 | 0.18 | 100 | 1008.8 |
| 20260831063533 | 56 | 0 | 3.0 | 12.0 | 0.00 | 0.19 | 0.18 | 100 | 1008.9 |
| 20260831063103 | 56 | 243 | 4.0 | 12.0 | 0.00 | 0.19 | 0.18 | 100 | 1008.8 |
| 20260831062534 | 56 | 213 | 1.0 | 10.0 | 0.00 | 0.19 | 0.18 | 100 | 1008.7 |
| 20260831062033 | 56 | 268 | 3.0 | 10.0 | 0.00 | 0.19 | 0.18 | 100 | 1008.8 |
| 20260831061547 | 56 | 244 | 1.0 | 8.0 | 0.00 | 0.19 | 0.18 | 100 | 1008.6 |
| 20260831061033 | 55 | 232 | 2.0 | 8.0 | 0.00 | 0.19 | 0.18 | 100 | 1008.5 |
| 20260831060533 | 55 | 236 | 1.0 | 7.0 | 0.00 | 0.19 | 0.18 | 100 | 1008.5 |
| 20260831060050 | 55 | 250 | 2.0 | 7.0 | 0.00 | 0.19 | 0.18 | 100 | 1008.4 |
| 20260831055532 | 55 | 255 | 2.0 | 7.0 | 0.00 | 0.19 | 0.18 | 100 | 1008.3 |
| 20260831055034 | 55 | 217 | 1.0 | 6.0 | 0.00 | 0.19 | 0.18 | 100 | 1008.2 |
| 20260831054556 | 55 | 0 | 1.0 | 10.0 | 0.00 | 0.19 | 0.18 | 100 | 1008.1 |
| 20260831054033 | 55 | 0 | 2.0 | 10.0 | 0.00 | 0.19 | 0.18 | 100 | 1008.0 |
| 20260831053531 | 55 | 197 | 2.0 | 10.0 | 0.00 | 0.19 | 0.18 | 100 | 1008.0 |
| 20260831053100 | 55 | 249 | 2.0 | 8.0 | 0.00 | 0.19 | 0.18 | 100 | 1007.9 |
| 20260831052530 | 55 | 242 | 1.0 | 6.0 | 0.00 | 0.19 | 0.18 | 100 | 1007.9 |
| 20260831052032 | 55 | 262 | 1.0 | 8.0 | 0.00 | 0.19 | 0.18 | 100 | 1007.8 |
| 20260831051550 | 55 | 241 | 1.0 | 8.0 | 0.00 | 0.19 | 0.18 | 100 | 1007.8 |
| 20260831051032 | 55 | 236 | 1.0 | 7.0 | 0.00 | 0.19 | 0.18 | 100 | 1007.7 |
| 20260831050532 | 55 | 221 | 1.0 | 5.0 | 0.00 | 0.19 | 0.18 | 100 | 1007.6 |
| 20260831050052 | 55 | 211 | 0.0 | 6.0 | 0.00 | 0.19 | 0.18 | 100 | 1007.6 |
| 20260831045534 | 55 | 248 | 0.0 | 6.0 | 0.00 | 0.19 | 0.18 | 100 | 1007.4 |
| 20260831045032 | 55 | 280 | 0.0 | 8.0 | 0.00 | 0.19 | 0.18 | 100 | 1007.4 |
| 20260831044555 | 55 | 0 | 1.0 | 8.0 | 0.00 | 0.19 | 0.18 | 100 | 1007.3 |
| 20260831044031 | 55 | 215 | 2.0 | 8.0 | 0.00 | 0.19 | 0.18 | 100 | 1007.2 |
| 20260831043531 | 55 | 0 | 1.0 | 8.0 | 0.00 | 0.19 | 0.18 | 100 | 1007.2 |
| 20260831043052 | 55 | 244 | 1.0 | 7.0 | 0.00 | 0.19 | 0.18 | 100 | 1007.2 |
| 20260831042532 | 55 | 190 | 2.0 | 6.0 | 0.00 | 0.19 | 0.18 | 100 | 1007.2 |
| 20260831042033 | 55 | 257 | 1.0 | 7.0 | 0.00 | 0.19 | 0.18 | 100 | 1007.2 |
| 20260831041558 | 55 | 255 | 2.0 | 9.0 | 0.00 | 0.19 | 0.18 | 100 | 1007.1 |
| 20260831041032 | 55 | 246 | 2.0 | 9.0 | 0.00 | 0.19 | 0.18 | 100 | 1007.1 |
| 20260831040532 | 55 | 0 | 2.0 | 7.0 | 0.00 | 0.19 | 0.18 | 100 | 1007.1 |
| 20260831035531 | 55 | 279 | 3.0 | 11.0 | 0.00 | 0.19 | 0.18 | 100 | 1007.1 |
| 20260831035030 | 55 | 241 | 3.0 | 11.0 | 0.00 | 0.19 | 0.18 | 100 | 1007.1 |
| 20260831034611 | 55 | 274 | 2.0 | 10.0 | 0.00 | 0.19 | 0.18 | 100 | 1007.1 |
| 20260831034031 | 55 | 223 | 2.0 | 10.0 | 0.00 | 0.19 | 0.18 | 100 | 1007.1 |
| 20260831033531 | 55 | 226 | 1.0 | 9.0 | 0.00 | 0.19 | 0.18 | 100 | 1007.0 |
| 20260831033101 | 56 | 171 | 1.0 | 9.0 | 0.00 | 0.19 | 0.18 | 100 | 1007.0 |
| 20260831032535 | 56 | 202 | 1.0 | 14.0 | 0.00 | 0.19 | 0.18 | 100 | 1007.1 |
| 20260831032030 | 56 | 230 | 1.0 | 14.0 | 0.00 | 0.19 | 0.18 | 100 | 1007.0 |
| 20260831031550 | 56 | 240 | 2.0 | 7.0 | 0.00 | 0.19 | 0.18 | 100 | 1006.9 |
| 20260831031031 | 56 | 262 | 1.0 | 9.0 | 0.00 | 0.19 | 0.18 | 100 | 1006.9 |
| 20260831030532 | 56 | 0 | 1.0 | 10.0 | 0.00 | 0.19 | 0.18 | 100 | 1006.8 |
| 20260831030058 | 56 | 0 | 2.0 | 10.0 | 0.00 | 0.19 | 0.18 | 100 | 1006.9 |
| 20260831025532 | 56 | 257 | 1.0 | 9.0 | 0.01 | 0.19 | 0.18 | 100 | 1006.7 |
| 20260831025035 | 56 | 0 | 2.0 | 10.0 | 0.01 | 0.19 | 0.18 | 100 | 1006.7 |
| 20260831024601 | 57 | 221 | 1.0 | 10.0 | 0.01 | 0.19 | 0.18 | 100 | 1006.7 |
| 20260831024032 | 57 | 279 | 2.0 | 10.0 | 0.02 | 0.19 | 0.18 | 100 | 1006.6 |
| 20260831023532 | 57 | 200 | 1.0 | 10.0 | 0.02 | 0.19 | 0.18 | 100 | 1006.6 |
| 20260831023052 | 57 | 221 | 0.0 | 10.0 | 0.02 | 0.19 | 0.18 | 100 | 1006.7 |
| 20260831022531 | 57 | 274 | 2.0 | 9.0 | 0.02 | 0.19 | 0.18 | 100 | 1006.7 |
| 20260831022031 | 58 | 181 | 2.0 | 10.0 | 0.02 | 0.19 | 0.18 | 100 | 1006.8 |
| 20260831021551 | 58 | 212 | 3.0 | 11.0 | 0.02 | 0.19 | 0.18 | 100 | 1006.6 |
| 20260831021032 | 58 | 227 | 2.0 | 11.0 | 0.02 | 0.19 | 0.18 | 100 | 1006.5 |
| 20260831020533 | 59 | 257 | 3.0 | 11.0 | 0.01 | 0.18 | 0.17 | 100 | 1006.7 |
| 20260831020049 | 59 | 219 | 2.0 | 7.0 | 0.01 | 0.18 | 0.17 | 100 | 1006.7 |
| 20260831015535 | 59 | 0 | 1.0 | 7.0 | 0.01 | 0.18 | 0.16 | 100 | 1006.5 |
| 20260831015031 | 59 | 180 | 0.0 | 7.0 | 0.01 | 0.18 | 0.16 | 100 | 1006.5 |
| 20260831014611 | 59 | 207 | 1.0 | 7.0 | 0.04 | 0.17 | 0.15 | 100 | 1006.4 |
| 20260831014200 | 59 | 0 | 0.0 | 3.0 | 0.05 | 0.17 | 0.15 | 100 | 1006.4 |
| 20260831013532 | 59 | 0 | 1.0 | 6.0 | 0.05 | 0.17 | 0.15 | 100 | 1006.4 |
| 20260831013047 | 59 | 0 | 0.0 | 7.0 | 0.08 | 0.17 | 0.15 | 100 | 1006.4 |
| 20260831012532 | 59 | 207 | 1.0 | 7.0 | 0.10 | 0.17 | 0.15 | 100 | 1006.4 |
| 20260831012149 | 59 | 0 | 1.0 | 4.0 | 0.14 | 0.17 | 0.15 | 100 | 1006.5 |
| 20260831011559 | 58 | 209 | 1.0 | 10.0 | 0.14 | 0.17 | 0.15 | 100 | 1006.5 |
| 20260831011032 | 58 | 179 | 1.0 | 12.0 | 0.14 | 0.17 | 0.15 | 100 | 1006.3 |
| 20260831010534 | 58 | 253 | 3.0 | 12.0 | 0.14 | 0.17 | 0.15 | 100 | 1006.5 |
| 20260831010056 | 58 | 263 | 1.0 | 10.0 | 0.15 | 0.17 | 0.15 | 100 | 1006.4 |
| 20260831005532 | 58 | 244 | 3.0 | 10.0 | 0.14 | 0.16 | 0.14 | 100 | 1006.5 |
| 20260831005032 | 58 | 220 | 2.0 | 7.0 | 0.14 | 0.16 | 0.14 | 100 | 1006.6 |
| 20260831004555 | 58 | 204 | 1.0 | 8.0 | 0.11 | 0.12 | 0.11 | 100 | 1006.8 |
| 20260831004032 | 58 | 186 | 1.0 | 8.0 | 0.10 | 0.11 | 0.10 | 100 | 1007.0 |
| 20260831003534 | 58 | 0 | 2.0 | 11.0 | 0.10 | 0.11 | 0.10 | 100 | 1006.9 |
| 20260831003051 | 59 | 174 | 3.0 | 12.0 | 0.07 | 0.08 | 0.07 | 100 | 1006.8 |
| 20260831002531 | 60 | 265 | 3.0 | 12.0 | 0.05 | 0.07 | 0.05 | 100 | 1006.9 |
| 20260831002034 | 60 | 242 | 0.0 | 9.0 | 0.01 | 0.03 | 0.01 | 100 | 1006.9 |
| 20260831001544 | 60 | 0 | 1.0 | 9.0 | 0.01 | 0.03 | 0.01 | 100 | 1006.9 |
| 20260831001032 | 60 | 206 | 2.0 | 9.0 | 0.00 | 0.02 | 0.00 | 100 | 1007.1 |
| 20260831000532 | 60 | 166 | 0.0 | 7.0 | 0.00 | 0.02 | 0.00 | 100 | 1007.0 |
| 20260831000046 | 60 | 0 | 0.0 | 7.0 | 0.00 | 0.01 | 0.00 | 100 | 1007.1 |
| 20260830235533 | 60 | 0 | 1.0 | 9.0 | 0.00 | 0.01 | 0.00 | 100 | 1007.2 |
| 20260830235036 | 59 | 185 | 0.0 | 9.0 | 0.00 | 0.01 | 0.00 | 100 | 1007.0 |
| 20260830234551 | 59 | 0 | 0.0 | 5.0 | 0.00 | 0.01 | 0.00 | 100 | 1007.2 |
| 20260830234031 | 59 | 183 | 0.0 | 8.0 | 0.00 | 0.01 | 0.00 | 100 | 1007.1 |
| 20260830233531 | 59 | 0 | 0.0 | 8.0 | 0.00 | 0.01 | 0.00 | 100 | 1007.2 |
| 20260830233057 | 59 | 0 | 1.0 | 8.0 | 0.00 | 0.01 | 0.00 | 100 | 1007.3 |
| 20260830232533 | 59 | 0 | 0.0 | 2.0 | 0.00 | 0.01 | 0.00 | 100 | 1007.3 |
| 20260830232032 | 59 | 0 | 0.0 | 6.0 | 0.00 | 0.01 | 0.00 | 100 | 1007.4 |
| 20260830231547 | 59 | 0 | 0.0 | 6.0 | 0.00 | 0.01 | 0.00 | 100 | 1007.4 |
| 20260830231033 | 59 | 185 | 0.0 | 5.0 | 0.00 | 0.01 | 0.00 | 100 | 1007.5 |
| 20260830230533 | 59 | 211 | 0.0 | 5.0 | 0.00 | 0.01 | 0.00 | 100 | 1007.6 |
| 20260830230046 | 59 | 0 | 0.0 | 7.0 | 0.00 | 0.01 | 0.00 | 100 | 1007.6 |
| 20260830225532 | 59 | 61 | 1.0 | 7.0 | 0.00 | 0.01 | 0.01 | 100 | 1007.7 |
| 20260830225031 | 59 | 0 | 0.0 | 5.0 | 0.00 | 0.01 | 0.01 | 100 | 1007.7 |
| 20260830224546 | 59 | 236 | 0.0 | 6.0 | 0.00 | 0.01 | 0.01 | 100 | 1007.8 |
| 20260830224033 | 59 | 0 | 0.0 | 6.0 | 0.00 | 0.01 | 0.01 | 100 | 1007.8 |
| 20260830223628 | 59 | 265 | 0.0 | 7.0 | 0.00 | 0.01 | 0.01 | 100 | 1007.9 |
| 20260830223055 | 59 | 186 | 0.0 | 7.0 | 0.00 | 0.01 | 0.01 | 100 | 1007.9 |
| 20260830222533 | 59 | 229 | 0.0 | 8.0 | 0.00 | 0.01 | 0.01 | 100 | 1007.8 |
| 20260830222033 | 59 | 0 | 0.0 | 8.0 | 0.00 | 0.01 | 0.01 | 100 | 1007.9 |
| 20260830221554 | 59 | 242 | 1.0 | 6.0 | 0.00 | 0.01 | 0.01 | 100 | 1008.0 |
| 20260830221031 | 59 | 245 | 0.0 | 6.0 | 0.00 | 0.01 | 0.01 | 100 | 1008.1 |
| 20260830220534 | 59 | 257 | 0.0 | 6.0 | 0.00 | 0.01 | 0.01 | 100 | 1008.1 |
| 20260830220100 | 59 | 0 | 0.0 | 5.0 | 0.00 | 0.01 | 0.01 | 100 | 1008.0 |
| 20260830215532 | 60 | 217 | 0.0 | 10.0 | 0.00 | 0.01 | 0.01 | 100 | 1008.1 |
| 20260830215034 | 60 | 249 | 1.0 | 10.0 | 0.00 | 0.01 | 0.01 | 100 | 1008.1 |
| 20260830214554 | 60 | 251 | 1.0 | 11.0 | 0.00 | 0.01 | 0.01 | 100 | 1008.2 |
| 20260830214033 | 60 | 0 | 1.0 | 11.0 | 0.01 | 0.01 | 0.01 | 100 | 1008.2 |
| 20260830213534 | 60 | 258 | 2.0 | 10.0 | 0.01 | 0.01 | 0.01 | 100 | 1008.2 |
| 20260830213101 | 60 | 0 | 2.0 | 10.0 | 0.01 | 0.01 | 0.01 | 100 | 1008.1 |
| 20260830212532 | 60 | 250 | 3.0 | 11.0 | 0.01 | 0.01 | 0.01 | 100 | 1008.0 |
| 20260830212032 | 60 | 243 | 4.0 | 11.0 | 0.01 | 0.01 | 0.01 | 100 | 1008.0 |
| 20260830211556 | 61 | 219 | 0.0 | 8.0 | 0.01 | 0.01 | 0.01 | 100 | 1008.0 |
| 20260830211032 | 61 | 231 | 2.0 | 8.0 | 0.01 | 0.01 | 0.01 | 100 | 1007.9 |
| 20260830210533 | 61 | 216 | 1.0 | 9.0 | 0.01 | 0.01 | 0.01 | 100 | 1007.8 |
| 20260830210103 | 62 | 171 | 2.0 | 9.0 | 0.01 | 0.01 | 0.01 | 100 | 1007.9 |
| 20260830205531 | 62 | 263 | 2.0 | 9.0 | 0.01 | 0.01 | 0.01 | 100 | 1007.9 |
| 20260830205031 | 63 | 207 | 1.0 | 5.0 | 0.01 | 0.01 | 0.01 | 100 | 1008.0 |
| 20260830204550 | 63 | 254 | 0.0 | 7.0 | 0.00 | 0.00 | 0.00 | 100 | 1007.9 |
| 20260830204032 | 63 | 0 | 1.0 | 7.0 | 0.00 | 0.00 | 0.00 | 100 | 1007.8 |
| 20260830203532 | 63 | 0 | 0.0 | 6.0 | 0.00 | 0.00 | 0.00 | 100 | 1007.9 |
| 20260830203100 | 63 | 304 | 0.0 | 4.0 | 0.00 | 0.00 | 0.00 | 100 | 1008.0 |
| 20260830202532 | 63 | 0 | 0.0 | 2.0 | 0.00 | 0.00 | 0.00 | 100 | 1008.0 |
| 20260830202033 | 63 | 0 | 0.0 | 2.0 | 0.00 | 0.00 | 0.00 | 100 | 1007.9 |
| 20260830201556 | 63 | 0 | 0.0 | 2.0 | 0.00 | 0.00 | 0.00 | 100 | 1007.9 |
| 20260830201034 | 63 | 0 | 0.0 | 0.0 | 0.00 | 0.00 | 0.00 | 100 | 1007.9 |
| 20260830200534 | 63 | 0 | 0.0 | 0.0 | 0.00 | 0.00 | 0.00 | 100 | 1008.0 |
| 20260830200055 | 63 | 0 | 0.0 | 0.0 | 0.00 | 0.00 | 0.00 | 100 | 1008.3 |
| 20260830195531 | 63 | 0 | 0.0 | 0.0 | 0.00 | 0.00 | 0.00 | 100 | 1008.2 |
| 20260830195032 | 63 | 0 | 0.0 | 0.0 | 0.00 | 0.00 | 0.00 | 100 | 1008.2 |
| 20260830194601 | 63 | 0 | 0.0 | 0.0 | 0.00 | 0.00 | 0.00 | 100 | 1008.3 |
| 20260830194033 | 63 | 0 | 0.0 | 0.0 | 0.00 | 0.00 | 0.00 | 100 | 1008.3 |
| 20260830193531 | 63 | 0 | 0.0 | 0.0 | 0.00 | 0.00 | 0.00 | 100 | 1008.3 |
| 20260830193046 | 63 | 0 | 0.0 | 0.0 | 0.00 | 0.00 | 0.00 | 100 | 1008.4 |
| 20260830192531 | 63 | 0 | 0.0 | 0.0 | 0.00 | 0.00 | 0.00 | 100 | 1008.4 |
| 20260830192031 | 64 | 0 | 0.0 | 0.0 | 0.00 | 0.00 | 0.00 | 100 | 1008.3 |
| 20260830191601 | 64 | 0 | 0.0 | 0.0 | 0.00 | 0.00 | 0.00 | 100 | 1008.5 |
| 20260830191034 | 64 | 0 | 0.0 | 4.0 | 0.00 | 0.00 | 0.00 | 100 | 1008.6 |
| 20260830190531 | 64 | 0 | 0.0 | 4.0 | 0.00 | 0.00 | 0.00 | 100 | 1008.5 |
| 20260830190049 | 64 | 0 | 0.0 | 4.0 | 0.00 | 0.00 | 0.00 | 100 | 1008.6 |
| 20260830185534 | 64 | 0 | 0.0 | 4.0 | 0.00 | 0.00 | 0.00 | 100 | 1008.6 |
| 20260830185033 | 64 | 182 | 0.0 | 5.0 | 0.00 | 0.00 | 0.00 | 100 | 1008.6 |
| 20260830184547 | 64 | 0 | 0.0 | 5.0 | 0.00 | 0.00 | 0.00 | 100 | 1008.7 |
| 20260830184031 | 64 | 0 | 0.0 | 4.0 | 0.00 | 0.00 | 0.00 | 100 | 1008.6 |
| 20260830183531 | 64 | 197 | 0.0 | 8.0 | 0.00 | 0.00 | 0.00 | 100 | 1008.5 |
| 20260830183051 | 64 | 0 | 1.0 | 8.0 | 0.00 | 0.00 | 0.00 | 100 | 1008.5 |
| 20260830182531 | 64 | 267 | 1.0 | 7.0 | 0.00 | 0.00 | 0.00 | 100 | 1008.6 |
| 20260830182032 | 64 | 113 | 0.0 | 7.0 | 0.00 | 0.00 | 0.00 | 100 | 1008.7 |
| 20260830181548 | 64 | 0 | 1.0 | 10.0 | 0.00 | 0.00 | 0.00 | 100 | 1008.6 |
| 20260830181033 | 64 | 153 | 1.0 | 10.0 | 0.00 | 0.00 | 0.00 | 100 | 1008.7 |
| 20260830180532 | 65 | 203 | 3.0 | 10.0 | 0.00 | 0.00 | 0.00 | 100 | 1008.7 |
| 20260830180047 | 65 | 0 | 0.0 | 9.0 | 0.00 | 0.00 | 0.00 | 100 | 1008.8 |
| 20260830175531 | 65 | 0 | 2.0 | 10.0 | 0.00 | 0.00 | 0.00 | 100 | 1008.8 |
| 20260830175031 | 65 | 244 | 2.0 | 10.0 | 0.00 | 0.00 | 0.00 | 100 | 1009.0 |
| 20260830174557 | 65 | 263 | 3.0 | 10.0 | 0.00 | 0.00 | 0.00 | 100 | 1009.0 |
| 20260830174030 | 66 | 180 | 2.0 | 10.0 | 0.00 | 0.00 | 0.00 | 100 | 1008.9 |
| 20260830173530 | 66 | 228 | 1.0 | 9.0 | 0.00 | 0.00 | 0.00 | 100 | 1008.9 |
| 20260830173048 | 67 | 229 | 2.0 | 6.0 | 0.00 | 0.00 | 0.00 | 100 | 1009.0 |
| 20260830172532 | 67 | 0 | 0.0 | 7.0 | 0.00 | 0.00 | 0.00 | 100 | 1009.0 |
| 20260830172032 | 67 | 267 | 2.0 | 7.0 | 0.00 | 0.00 | 0.00 | 100 | 1009.0 |
| 20260830171555 | 67 | 202 | 1.0 | 10.0 | 0.00 | 0.00 | 0.00 | 100 | 1008.8 |
| 20260830171031 | 67 | 0 | 1.0 | 10.0 | 0.00 | 0.00 | 0.00 | 100 | 1008.8 |
| 20260830170531 | 67 | 163 | 0.0 | 6.0 | 0.00 | 0.00 | 0.00 | 100 | 1009.0 |
| 20260830170045 | 67 | 0 | 1.0 | 7.0 | 0.00 | 0.00 | 0.00 | 100 | 1008.9 |
| 20260830165533 | 67 | 261 | 2.0 | 7.0 | 0.00 | 0.02 | 0.00 | 100 | 1009.0 |
| 20260830165035 | 67 | 92 | 2.0 | 10.0 | 0.00 | 0.02 | 0.00 | 100 | 1009.0 |
| 20260830164549 | 67 | 271 | 1.0 | 10.0 | 0.00 | 0.02 | 0.00 | 100 | 1009.0 |
| 20260830164032 | 67 | 287 | 3.0 | 8.0 | 0.00 | 0.02 | 0.00 | 100 | 1009.1 |
| 20260830163532 | 68 | 0 | 1.0 | 5.0 | 0.00 | 0.02 | 0.00 | 100 | 1009.1 |
| 20260830163055 | 68 | 267 | 1.0 | 7.0 | 0.00 | 0.02 | 0.00 | 100 | 1009.3 |
| 20260830162532 | 68 | 182 | 1.0 | 11.0 | 0.00 | 0.02 | 0.00 | 100 | 1009.4 |
| 20260830162031 | 68 | 198 | 2.0 | 11.0 | 0.00 | 0.02 | 0.00 | 100 | 1009.4 |
| 20260830161556 | 68 | 182 | 1.0 | 8.0 | 0.00 | 0.02 | 0.00 | 100 | 1009.5 |
| 20260830161031 | 68 | 167 | 2.0 | 10.0 | 0.00 | 0.02 | 0.00 | 100 | 1009.4 |
| 20260830160531 | 68 | 210 | 2.0 | 10.0 | 0.00 | 0.02 | 0.00 | 100 | 1009.4 |
| 20260830155530 | 68 | 0 | 2.0 | 10.0 | 0.00 | 0.03 | 0.00 | 100 | 1009.5 |
| 20260830155031 | 68 | 262 | 3.0 | 10.0 | 0.00 | 0.03 | 0.00 | 100 | 1009.4 |
| 20260830154600 | 68 | 187 | 1.0 | 8.0 | 0.00 | 0.03 | 0.00 | 100 | 1009.5 |
| 20260830154034 | 68 | 234 | 2.0 | 8.0 | 0.00 | 0.03 | 0.00 | 100 | 1009.6 |
| 20260830153532 | 68 | 199 | 2.0 | 13.0 | 0.00 | 0.03 | 0.00 | 100 | 1009.7 |
| 20260830153049 | 68 | 182 | 4.0 | 13.0 | 0.00 | 0.03 | 0.00 | 100 | 1009.7 |
| 20260830152533 | 68 | 213 | 2.0 | 12.0 | 0.00 | 0.03 | 0.00 | 100 | 1009.8 |
| 20260830152032 | 68 | 132 | 3.0 | 12.0 | 0.00 | 0.03 | 0.00 | 100 | 1009.8 |
| 20260830151558 | 68 | 243 | 3.0 | 10.0 | 0.00 | 0.03 | 0.00 | 100 | 1009.9 |
| 20260830151032 | 68 | 225 | 2.0 | 11.0 | 0.00 | 0.03 | 0.00 | 100 | 1009.9 |
| 20260830150534 | 68 | 0 | 1.0 | 12.0 | 0.00 | 0.03 | 0.00 | 100 | 1009.8 |
| 20260830150055 | 68 | 254 | 3.0 | 12.0 | 0.00 | 0.03 | 0.00 | 100 | 1009.9 |
| 20260830145531 | 68 | 250 | 2.0 | 9.0 | 0.00 | 0.14 | 0.00 | 100 | 1010.0 |
| 20260830145033 | 68 | 0 | 3.0 | 11.0 | 0.00 | 0.14 | 0.00 | 100 | 1009.9 |
| 20260830144602 | 68 | 231 | 2.0 | 11.0 | 0.00 | 0.14 | 0.00 | 100 | 1010.0 |
| 20260830144034 | 68 | 189 | 3.0 | 9.0 | 0.00 | 0.14 | 0.00 | 100 | 1010.1 |
| 20260830143531 | 68 | 213 | 3.0 | 9.0 | 0.00 | 0.14 | 0.00 | 100 | 1010.0 |
| 20260830143051 | 68 | 230 | 3.0 | 9.0 | 0.00 | 0.14 | 0.00 | 100 | 1010.0 |
| 20260830142534 | 68 | 167 | 2.0 | 9.0 | 0.00 | 0.14 | 0.00 | 100 | 1010.1 |
| 20260830142033 | 68 | 263 | 1.0 | 9.0 | 0.00 | 0.14 | 0.00 | 100 | 1010.1 |
| 20260830141554 | 68 | 198 | 2.0 | 10.0 | 0.00 | 0.14 | 0.00 | 100 | 1010.1 |
| 20260830141036 | 68 | 0 | 2.0 | 10.0 | 0.00 | 0.14 | 0.00 | 100 | 1010.3 |
| 20260830140532 | 68 | 182 | 2.0 | 10.0 | 0.00 | 0.14 | 0.00 | 100 | 1010.2 |
| 20260830140055 | 68 | 0 | 1.0 | 8.0 | 0.00 | 0.14 | 0.00 | 100 | 1010.3 |
| 20260830135535 | 67 | 0 | 2.0 | 8.0 | 0.00 | 0.14 | 0.00 | 100 | 1010.4 |
| 20260830135034 | 67 | 176 | 1.0 | 8.0 | 0.00 | 0.14 | 0.00 | 100 | 1010.2 |